#timestamp,LO_Frequency,Hit,StdDev 
1578473275.2,286046949.2,P
1578473295.1,286046947.7,P
1578473296.0,286046947.7,P
1578473315.8,286046945.9,Y
1578473335.7,286046995.4,P
1578473385.5,286046998.9,E
1578473395.5,286046998.9,N
1578473415.3,286047000.8,P
1578473435.1,286046996.5,P
1578473455.9,286046999.3,N
1578473475.7,286047000.4,N
1578473495.5,286047000.9,N
1578473515.4,286046996.7,N
1578473535.2,286046995.3,N
1578473555.0,286046995.9,N
1578473556.0,286046995.9,N
1578473575.8,286046996.2,N
1578473595.6,286046993.4,Y
1578473615.5,286046995.7,P
1578473635.3,286046996.0,P
1578473655.1,286046996.6,P
1578473675.9,286046996.8,Y
1578473695.7,286047000.9,P
1578473715.6,286046998.2,N
1578473735.4,286046999.1,N
1578473755.2,286046997.2,N
1578473775.1,286046994.9,Y
1578473776.0,286046994.9,P
1578473795.8,286046999.4,N
1578473815.6,286046998.7,N
1578473835.5,286046999.4,N
1578473855.3,286046998.9,N
1578473875.2,286046998.3,N
1578473895.9,286046998.2,N
1578473915.7,286046998.7,N
1578473935.6,286046999.6,N
1578473955.4,286046996.8,N
1578473975.2,286046997.0,N
1578473995.1,286046997.2,N
1578473996.0,286046997.2,N
